Regional Weather Roundup
Issued by NWS Kansas City/Pleasant Hill, MO

Home | Current Version | Previous Version | Text Only | Print | Product List | Glossary On
Versions: 1 2 3 4 5 6 7 8 9 10 11 12 13 14 15 16 17 18 19 20 21 22 23 24 25 26 27 28 29 30 31 32 33 34 35 36 37 38 39 40 41 42 43 44 45 46 47 48 49 50
000
ASUS43 KEAX 310711
RWREAX

WEATHER ROUNDUP FOR EASTERN KANSAS AND NORTHWEST MISSOURI
NATIONAL WEATHER SERVICE KANSAS CITY/PLEASANT HILL MO
200 AM CDT FRI OCT 31 2014

KSZ040-057-103>105-MOZ028-029-037-043-310800-
...KANSAS CITY METROPOLITAN AREA...

CITY           SKY/WX    TMP DP  RH WIND       PRES   REMARKS
K.C. INTL      CLOUDY    50  41  71 N20G28    30.26R
K.C. DOWNTOWN  PTCLDY    52  40  63 N13       30.25R
LEES SUMMIT    CLEAR     50  39  66 N17G28    30.24R
OLATHE - IXD   CLEAR     46  40  79 NW12      30.25R
OLATHE - OJC   CLEAR     49  41  74 N10       30.23R
LAWRENCE       MOCLDY    49  40  71 N17       30.27R

$$

MOZ001>008-011>017-020>025-030>033-038>040-044>046-053-054-310800-
...NORTHERN AND CENTRAL MISSOURI...

CITY           SKY/WX    TMP DP  RH WIND       PRES   REMARKS
ST. JOSEPH     CLOUDY    48  38  68 N20G33    30.30R
MOSBY          CLOUDY    50  39  66 N20G28    30.25R
WHITEMAN AFB   FAIR      49  38  66 N17G23    30.17R
CLINTON        CLEAR     52  39  62 NW9       30.18R
SEDALIA        MOCLDY    50  40  68 NW15      30.16R
WARSAW         NOT AVBL
MARSHALL       CLOUDY    54  43  66 N10       30.19R
CHILLICOTHE      N/A     51  40  65 N9        30.23R
MOBERLY        CLOUDY    50  43  76 NW5       30.16
KIRKSVILLE     CLOUDY    49  38  65 N17G29    30.19R

$$

MOZ041-047>049-056>058-063>065-088>090-097-310800-
...EASTERN AND SOUTHERN MISSOURI...

CITY           SKY/WX    TMP DP  RH WIND       PRES   REMARKS
ST. LOUIS INTL MOCLDY    48  44  86 N6        30.07R
SPIRIT OF STL  PTCLDY    45  43  93 CALM      30.07R
COLUMBIA       CLOUDY    46  43  89 NW9       30.12R
JEFFERSON CITY MOCLDY    43  42  97 W6        30.12R
MEXICO         MOCLDY   N/A N/A N/A NW6       30.12R
HANNIBAL       CLOUDY    48  41  76 NW7       30.13R
ROLLA          CLEAR     45  43  93 NW6       30.07R
LEBANON        CLEAR     50  41  71 NW6       30.11R
OSAGE BEACH    CLEAR     48  41  76 NW3       30.12R
SPRINGFIELD    CLEAR     51  41  68 NW14      30.13R
BRANSON        PTCLDY    52  39  62 NW14G20   30.12R
NEVADA         CLEAR     50  41  71 NW13G18   30.21R
JOPLIN         CLEAR     50  41  71 N10       30.19R
WEST PLAINS    CLEAR     51  41  68 NW13G21   30.06R

$$

IAZ060-094-KSZ022-034>040-054-083-096-NEZ052-066-093-310800-
...KANSAS...SOUTHEAST NEBRASKA AND IOWA...

CITY           SKY/WX    TMP DP  RH WIND       PRES   REMARKS
TOPEKA         CLOUDY    49  42  77 N14       30.31R
MANHATTAN      CLOUDY    48  39  71 N15G26    30.35R
EMPORIA        CLEAR     45  39  79 N16G23    30.29R
CHANUTE        CLEAR     50  40  68 N13       30.24R
WICHITA        PTCLDY    48  37  65 N15G26    30.32R
OMAHA          CLOUDY    38  27  64 N18G30    30.44R WCI  28
LINCOLN        CLOUDY    40  28  62 N22G31    30.44R WCI  30
FALLS CITY     CLOUDY    43  34  70 N22G30    30.34R WCI  34
LAMONI         LGT RAIN  43  33  68 N21G29    30.28R WCI  34
DES MOINES     MOCLDY    42  26  53 N16G29    30.32R WCI  34

$$




USA.gov is the U.S. government's official web portal to all federal, state and local government web resources and services.